Weather Roundup
Issued by NWS

Home | Current Version | Previous Version | Graphics & Text | Print | Product List | Glossary Off
Versions: 1 2 3 4 5 6 7 8 9 10 11 12 13 14 15 16 17 18 19 20 21 22 23 24 25 26 27 28 29 30 31 32 33 34 35 36 37 38 39 40 41 42 43 44 45 46 47 48 49 50

439
NZUS93 KARX 230610
HRRWXR

CURRENT HOURLY OBSERVATIONS ACROSS
MUCH OF THE UPPER MISSISSIPPI VALLEY
NATIONAL WEATHER SERVICE LA CROSSE WI
100 AM CDT THU MAR 23 2017


...SOUTHEAST MINNESOTA...


CITY           SKY/WX    TMP DP  RH WIND       PRES   REMARKS
ROCHESTER      CLOUDY    34  21  59 S15       30.27F WCI  24
ROCHESTER/MAYO CLOUDY    36  18  47 SE14      30.28F WCI  27
WINONA         CLOUDY    37  18  44 SE12      30.32F WCI  30
AUSTIN         CLOUDY    36  21  55 SE12      30.25F WCI  27
ALBERT LEA     CLOUDY    36  21  55 SE16G22   30.22F WCI  26
DODGE CENTER   CLOUDY    34  21  60 SE16      30.25F WCI  23
PRESTON        CLOUDY    34  18  52 SE14      30.29F WCI  25
OWATONNA       CLOUDY    36  19  51 SE13G20   30.24S WCI  27
FARIBAULT      CLOUDY    37  21  52 SE12G18   30.25S WCI  30
$$

...ELSEWHERE IN MINNESOTA...


CITY           SKY/WX    TMP DP  RH WIND       PRES   REMARKS
MINNEAPOLIS    CLOUDY    36  16  44 SE12      30.26F WCI  28
INTNL FALLS    MIX PCPN  28  23  81 SE8       30.18F WCI  20
DULUTH         FLURRIES  29  21  72 E12       30.24F WCI  19
RED WING       CLOUDY    37  10  32 SE10      30.29F WCI  30
REDWOOD FALLS  CLOUDY    37  23  56 SE17G25   30.17F WCI  27
MANKATO        CLOUDY    36  22  56 SE15      30.21F WCI  27
WORTHINGTON    CLOUDY    37  24  59 S18G24    30.13F WCI  27
FAIRMONT       CLOUDY    36  24  62 S16       30.20S WCI  26
$$

...SOUTHWEST WISCONSIN...


CITY           SKY/WX    TMP DP  RH WIND       PRES   REMARKS
LA CROSSE      CLOUDY    38  17  42 SE13      30.35S WCI  30
PRAIRIE DU CHI CLOUDY    37  20  49 E7        30.36F WCI  32
BOSCOBEL       CLOUDY    36  19  50 SE6       30.39S WCI  31
LONE ROCK      CLOUDY    32  19  58 SE12      30.41R WCI  23
PLATTEVILLE    CLOUDY    33  22  63 SE12      30.39S WCI  25
FORT MC COY    CLOUDY    34  19  52 SE7       30.37S WCI  28
MAUSTON-NEW LI CLOUDY    32  22  66 SE8       30.38S WCI  25
VIROQUA        CLOUDY    33  19  56 SE13G18   30.34S WCI  24
WIS DELLS      CLOUDY    29  21  73 SE9       30.40S WCI  20
$$

...ELSEWHERE IN WISCONSIN...


CITY           SKY/WX    TMP DP  RH WIND       PRES   REMARKS
MILWAUKEE      PTCLDY    26  17  68 CALM      30.47F
MADISON        CLOUDY    26  19  74 SE9       30.42S WCI  17
GREEN BAY      CLEAR     24  20  84 SE6       30.46F WCI  17
EAU CLAIRE     CLOUDY    35  12  38 SE8       30.32F WCI  29
BLACK RVR FLS  CLOUDY    34  14  45 SE6       30.36R WCI  28
MEDFORD        CLOUDY    28  17  61 SE8       30.34F WCI  20
WAUSAU         CLOUDY    27  18  69 SE10      30.38S WCI  17
WIS RAPIDS     CLOUDY    29  20  69 SE8       30.40F WCI  21
MARSHFIELD     CLOUDY    28  18  66 SE9       30.35F WCI  19
RICE LAKE      CLOUDY    33  12  41 CALM      30.32F
$$

...NORTHEAST IOWA...


CITY           SKY/WX    TMP DP  RH WIND       PRES   REMARKS
WATERLOO       CLOUDY    37  22  54 SE15G23   30.29F WCI  28
DUBUQUE        CLOUDY    35  20  54 SE16G23   30.37R WCI  25
DECORAH        CLOUDY    36  21  55 SE9       30.30F WCI  29
MASON CITY     CLOUDY    35  22  58 SE17      30.24F WCI  25
CHARLES CITY   CLOUDY    36  21  55 SE15G22   30.28F WCI  26
OELWEIN        MOCLDY    34  25  69 SE13G18   30.31F WCI  25
$$

...ELSEWHERE IN IOWA...


CITY           SKY/WX    TMP DP  RH WIND       PRES   REMARKS
DES MOINES     CLOUDY    42  17  36 SE13      30.24F
IOWA CITY      PTCLDY    37  22  54 SE9       30.36S WCI  30
FORT DODGE     CLOUDY    39  19  45 SE12G22   30.21F WCI  32
MARSHALLTOWN   MOCLDY    38  21  50 SE16      30.26F WCI  29
CEDAR RAPIDS   PTCLDY    34  22  61 SE16      30.32F WCI  24
$$

...NORTHERN ILLINOIS...


CITY           SKY/WX    TMP DP  RH WIND       PRES   REMARKS
CHICAGO-OHARE  PTCLDY    31  22  69 E7        30.45F WCI  24
CHICAGO-MIDWAY PTCLDY    32  25  75 E6        30.46F WCI  26
MOLINE         PTCLDY    35  21  56 E12       30.38F WCI  27
ROCKFORD       CLOUDY    29  18  63 E8        30.46S WCI  21
PEORIA         PTCLDY    35  21  56 E13       30.41S WCI  26
$$

NOTE: "FAIR" INDICATES FEW OR NO CLOUDS BELOW 12,000 FEET WITH NO
SIGNIFICANT WEATHER AND/OR OBSTRUCTIONS TO VISIBILITY. WIND
SPEEDS ARE IN MILES-PER-HOUR.




USA.gov is the U.S. government's official web portal to all federal, state and local government web resources and services.